User: anonymous
Location: Deer Path Park
(40.5570°N, 74.8450°W)
Time: 23:41:27
(UTC-04:00)
Language:

Iridium 49 - Orbit

View from above orbital plane
View from above orbital plane
View from above satellite
View from above satellite

Ground track
Ground track

The orbit data is extracted from the following two-line orbital elements,

1 25108U 97082E   14293.50479745  .00000238  00000-0  77799-4 0  9606
2 25108 086.3922 301.1683 0002158 105.3785 005.4209 14.34217801881249
Epoch (UTC): 20 October 2014 12:06:54
Eccentricity: 0.0002158
inclination: 86.3922°
perigee height: 776 km
apogee height: 779 km
right ascension of ascending node: 301.1683°
argument of perigee: 105.3785°
revolutions per day: 14.34217801
mean anomaly at epoch: 5.4209°
orbit number at epoch: 88124

The dashed part of the orbit path shows where the satellite is in the earth's shadow,  

DLR